Regional Weather Roundup
Issued by NWS

Home | Current Version | Previous Version | Graphics & Text | Print | Product List | Glossary Off
Versions: 1 2 3 4 5 6 7 8 9 10 11 12 13 14 15 16 17 18 19 20 21 22 23 24 25 26 27 28 29 30 31 32 33 34 35 36 37 38 39 40 41 42 43 44 45 46 47 48 49 50

481
ASUS45 KABQ 231710
RWRNM
NEW MEXICO REGIONAL WEATHER ROUNDUP
NATIONAL WEATHER SERVICE ALBUQUERQUE NM
1100 AM MDT THU MAR 23 2017

NOTE: "FAIR" MEANS FEW OR NO CLOUDS BELOW 12,000 FEET AGL WITH NO
       SIGNIFICANT WEATHER OR OBSTRUCTIONS TO VISION.

      THIS PRODUCT IS RELEASED AS TWO VERSIONS.  ONE VERSION NEAR
      THE TOP OF THE HOUR CONTAINING PRELIMINARY DATA FROM ALBUQUERQUE
      AND OTHER STATIONS.  A FINAL VERSION WITH ADDITIONAL DATA IS
      ISSUED ABOUT 10 MINUTES AFTER THE HOUR.

NMZ501-503-504-510>518-231800-
NORTHWEST PLATEAU/NORTHCENTRAL MOUNTAINS

CITY           SKY/WX    TMP DP  RH WIND       PRES   REMARKS
FARMINGTON     LGT RAIN  52  33  48 SW7       29.78F
LOS ALAMOS     FAIR      57  19  22 S22G31    29.87F
SANTA FE       FAIR      63  22  20 SW26G36   29.84F
TAOS             N/A     57  18  21 SW24G32   29.86F
ANGEL FIRE     FAIR      55  18  24 SW22G32   29.88F

$$
NMZ402-403-502-505>509-231800-
WESTCENTRAL MOUNTAINS/SOUTHWEST MOUNTAINS

CITY           SKY/WX    TMP DP  RH WIND       PRES   REMARKS
GALLUP         CLOUDY    39  36  89 SW14      29.88R WCI  31
GRANTS         PTSUNNY   54  23  29 SW14G23   29.85F
SILVER CITY    PTSUNNY   57  34  42 SW9G24    29.91F

$$
NMZ407-409-411-412-231800-
SOUTHERN DESERTS

CITY           SKY/WX    TMP DP  RH WIND       PRES   REMARKS
DEMING         FAIR      66  35  31 W23G30    29.88S
LAS CRUCES     FAIR      68  26  20 W18G24    29.88S
HOLLOMAN AFB   SUNNY     78   9   7 SW28      29.82F
ALAMOGORDO     FAIR      77  16  10 SW32G40   29.80F
T OR C         FAIR      68  25  19 SW22G32   29.83F

$$
NMZ519>523-231800-
CENTRAL VALLEYS/CENTRAL HIGHLANDS

CITY           SKY/WX    TMP DP  RH WIND       PRES   REMARKS
ALBUQUERQUE    FAIR      65  22  19 SW20G31   29.82F
DOUBLE EAGLE   MOSUNNY   63  25  23 S18G25    29.84F
MORIARTY ARPT  FAIR      68  20  16 S30G37    29.86S
CLINES CORNERS FAIR      62  18  18 SW35G44   29.88F
BELEN          FAIR      66  22  18 SW14G22   29.81F
SOCORRO        FAIR      69  22  17 SW25G31   29.82F

$$
NMZ524>526-539-540-231800-
SOUTHCENTRAL MOUNTAINS

CITY           SKY/WX    TMP DP  RH WIND       PRES   REMARKS
RUIDOSO        FAIR      66  10  11 SW29G39   29.91F

$$
NMZ527>531-231800-
NORTHEAST HIGHLANDS/NORTHEAST PLAINS

CITY           SKY/WX    TMP DP  RH WIND       PRES   REMARKS
LAS VEGAS      FAIR      65  16  15 S29G39    29.85F
RATON            N/A     69  18  14 S24G38    29.77F
CLAYTON        FAIR      74  33  22 SW25G32   29.80F

$$
NMZ532>537-231800-
EASTCENTRAL PLAINS

CITY           SKY/WX    TMP DP  RH WIND       PRES   REMARKS
SANTA ROSA     FAIR      67  45  44 S17       29.80F
TUCUMCARI      FAIR      76  46  34 S21G26    29.78F
CANNON AFB     FAIR      76  39  25 S16G23    29.82F
CLOVIS AIRPORT FAIR      75  48  38 S20       29.84F

$$
NMZ028-029-538-231800-
SOUTHEAST PLAINS

CITY           SKY/WX    TMP DP  RH WIND       PRES   REMARKS
ROSWELL        FAIR      78  45  30 S25G31    29.78F
ARTESIA        FAIR      73  54  49 S25       29.79F
CARLSBAD       FAIR      74  54  49 S21G29    29.80F
HOBBS          SUNNY     72  55  56 SE23G30   29.86F


$$




USA.gov is the U.S. government's official web portal to all federal, state and local government web resources and services.